Regional Weather Roundup
Issued by NWS

Home | Current Version | Previous Version | Graphics & Text | Print | Product List | Glossary On
Versions: 1 2 3 4 5 6 7 8 9 10 11 12 13 14 15 16 17 18 19 20 21 22 23 24 25 26 27 28 29 30 31 32 33 34 35 36 37 38 39 40 41 42 43 44 45 46 47 48 49 50
508
ASUS43 KIND 292109
RWRIN

WEATHER ROUNDUP FOR INDIANA
NATIONAL WEATHER SERVICE INDIANAPOLIS IN
500 PM EDT WED MAR 29 2017

NOTE: "FAIR" INDICATES FEW OR NO CLOUDS BELOW 12,000 FEET WITH NO
SIGNIFICANT WEATHER AND/OR OBSTRUCTIONS TO VISIBILITY.

* - STATION DOES NOT REPORT WEATHER SUCH AS PRECIPITATION OR FOG.

+ - STATION NOT QUALITY CONTROLLED BY THE NATIONAL WEATHER SERVICE.
    USE DATA WITH CAUTION...ESPECIALLY DEWPOINT AND RELATIVE
    HUMIDITY OBSERVATIONS.

INZ001>003-010>013-019-020-292200-
NORTHWEST INDIANA

CITY           SKY/WX    TMP DP  RH WIND       PRES   REMARKS
GARY /AIRPORT/ CLOUDY    45  36  70 E9        30.20R
KNOX *+        CLOUDY    54  10  17 E15G21    30.17R
LA PORTE +     CLOUDY    53  36  52 E12       30.19R
MICHIGAN CITY+ CLOUDY    54  34  47 E5        30.19R
MONTICELLO +   CLOUDY    56  37  49 E10G20    30.14R
RENSSELAER +   CLOUDY    54  37  54 E12       30.16R
VALPARAISO     CLOUDY    55  37  50 E14       30.18R

$$

LMZ046-743>745-292200-
SOUTHERN LAKE MICHIGAN

STATION/POSITION TIME  TEMP    WIND        PRES    WAVE
                       AIR SEA DIR/SP/G            HT
                 (UTC) (F)     (DEG/KT/KT) (MB)    (FT)
BURNS HARBOR     2040   42      70/  9/ 11 1022.7S
MICHIGAN CITY    2040   42      20/ 12/ 13   N/A

$$

INZ004-005-014>016-021>024-292200-
NORTH CENTRAL INDIANA

CITY           SKY/WX    TMP DP  RH WIND       PRES   REMARKS
ELKHART        SUNNY     55  32  41 E17       30.17F
GOSHEN         CLOUDY    54  33  45 E14       30.17F
LOGANSPORT +   PTSUNNY   55  39  54 E15       30.15R
PERU/GRISSOM   CLOUDY    57  40  52 E21       30.11F
SOUTH BEND     CLOUDY    54  32  43 E9        30.17F
WARSAW +       CLOUDY    54  36  50 E14G22    30.16F

$$

INZ006>009-017-018-025>027-292200-
NORTHEAST INDIANA

CITY           SKY/WX    TMP DP  RH WIND       PRES   REMARKS
ANGOLA *+      SUNNY     54  39  58 SE17      30.21S
AUBURN +       MOSUNNY   54  34  47 E16       30.20F
FORT WAYNE     PTSUNNY   56  37  49 E22G29    30.17F
HUNTINGTON +   CLOUDY    55  37  50 E13G21    30.15F
KENDALLVILLE + MOSUNNY   54  33  44 E12G21    30.20S

$$

INZ028-029-035-036-043>045-051>053-292200-
WEST CENTRAL INDIANA

CITY           SKY/WX    TMP DP  RH WIND       PRES   REMARKS
CRAWFORDSVL +  CLOUDY    54  42  63 NE12      30.09F
GREENCASTLE +  CLOUDY    55  43  62 E15       30.06F
LAFAYETTE      CLOUDY    55  41  59 E14       30.13R
TERRE HAUTE    CLOUDY    61  46  57 E8        30.03F

$$

INZ030>032-037>040-046>048-054>057-064-065-292200-
CENTRAL INDIANA

CITY           SKY/WX    TMP DP  RH WIND       PRES   REMARKS
CP ATTERBURY + PTSUNNY   57  45  62 E12G21    30.08F
COLUMBUS       MOSUNNY   57  48  72 E13       30.08F
FISHERS *+     SUNNY     59  46  63 E12G17    30.09F
FRANKFORT +    CLOUDY    59  45  60 SE16      30.13S
GREENWOOD *+   PTSUNNY   59  46  60 E10G16    30.10F
INDIANAPOLIS   PTSUNNY   59  43  55 E18       30.06F
-EAGLE CREEK   MOSUNNY   59  42  53 E13G21    30.07F
KOKOMO +       CLOUDY    57  43  59 E20G25    30.13F
MARION +       MOSUNNY   57  40  53 E13G22    30.15R
MT COMFORT *+  MOSUNNY   61  45  55 E15       30.10F
SHELBYVILLE    MOSUNNY   60  45  57 E14G21    30.09F
ZIONSVILLE +   MOSUNNY   58  43  58 E14       30.10F

$$

INZ033-034-041-042-049-050-058-059-292200-
EAST CENTRAL INDIANA

CITY           SKY/WX    TMP DP  RH WIND       PRES   REMARKS
MUNCIE         MOSUNNY   61  44  53 E15       30.13S
RICHMOND +     SUNNY     57  41  54 E13G21    30.12S

$$

INZ060-061-067>069-081>083-085>088-292200-
SOUTHWEST INDIANA

CITY           SKY/WX    TMP DP  RH WIND       PRES   REMARKS
EVANSVILLE     MOSUNNY   70  52  52 E13       29.94F
HUNTINGBURG *+ SUNNY     67  52  58 E14       29.98F
WASHINGTON +   SUNNY     62  48  60 MISG      30.00F

$$

INZ062-063-066-070>080-084-089>092-292200-
SOUTH CENTRAL AND SOUTHEAST INDIANA

CITY           SKY/WX    TMP DP  RH WIND       PRES   REMARKS
BEDFORD +      PTSUNNY   63  46  55 E12       30.03F
BLOOMINGTON    MOSUNNY   62  46  55 SE12G21   30.02F
MADISON *+     SUNNY     63  45  51 SE10      30.10S
NORTH VERNON + SUNNY     63  43  48 E8        30.10F
SEYMOUR +      MOSUNNY   66  46  48 E10       30.06F

$$





USA.gov is the U.S. government's official web portal to all federal, state and local government web resources and services.